Location: Stonelick Lake State Park
(39.2170°N, 84.0850°W)
Time: 11:26:46
(UTC-04:00)

Amateur Radio Satellites - All Passes

Search period start: 17 April 2014 10:56
Search period end: 18 April 2014 10:56
Location: Stonelick Lake State Park, 39.2170°N, 84.0850°W

Satellite Date Start Highest point End Downlink Frequencies (MHz)
Time Altitude Azimuth
PANSAT 17 Apr 11:05:52 11:07:51 14° 170° (S) 11:09:51 not established
HO-68 17 Apr 11:12:07 11:19:20 82° 288° (WNW) 11:26:30 435.675 MHz FM
KITSAT 1 17 Apr 11:24:10 11:29:49 20° 36° (NE) 11:35:25 435.175 FM
PCSat 17 Apr 11:26:34 11:32:01 89° 240° (WSW) 11:37:26 145.825 MHz
RS-15 17 Apr 11:49:25 11:57:06 21° 340° (NNW) 12:04:46 29.354 - 29.394 USB, Beacon 29.352 USB
FUNcube-1 17 Apr 11:56:41 12:00:50 53° 100° (E) 12:05:04 145.950 - 145.970 MHz USB
Saudisat 1A 17 Apr 12:07:25 12:11:38 43° 116° (ESE) 12:15:52 436.775 MHz
Oscar 11 17 Apr 12:14:19 12:18:06 30° 290° (WNW) 12:21:53 145.825 FM, Beacon 2401.500 USB
Sapphire 17 Apr 12:25:18 12:29:57 30° 251° (WSW) 12:34:35 437.095 MHz 1200 baud AX-25 AFSK
PANSAT 17 Apr 12:44:56 12:47:25 16° 183° (S) 12:49:53 not established
HO-68 17 Apr 13:02:00 13:05:57 16° 306° (NW) 13:09:54 435.675 MHz FM
PCSat 17 Apr 13:13:43 13:14:34 10° 259° (WSW) 13:15:26 145.825 MHz
KITSAT 1 17 Apr 13:18:35 13:26:43 74° 59° (ENE) 13:34:45 435.175 FM
AO-27 17 Apr 13:19:08 13:20:14 11° 59° (ENE) 13:21:20 436.795 MHz FM
ITAMSAT 1 17 Apr 13:29:00 13:31:26 13° 61° (ENE) 13:33:51 435.822 SSB
FUNcube-1 17 Apr 13:34:50 13:36:50 13° 295° (WNW) 13:38:51 145.950 - 145.970 MHz USB
Oscar 19 17 Apr 13:36:49 13:41:11 29° 67° (ENE) 13:45:35 437.125 CW, 437.150 USB
Oscar 16 17 Apr 13:44:19 13:48:59 37° 69° (ENE) 13:53:41 437.025 USB, Beacon 2401.1428
Saudisat 1A 17 Apr 13:47:56 13:51:25 22° 313° (NW) 13:54:55 436.775 MHz
AO-Echo 17 Apr 13:58:00 14:01:45 20° 65° (ENE) 14:05:27 ?
RS-15 17 Apr 14:07:59 14:15:22 20° 17° (NNE) 14:22:45 29.354 - 29.394 USB, Beacon 29.352 USB
Uribyol 2 17 Apr 14:15:16 14:20:00 38° 69° (ENE) 14:24:44 436.500 FM
PANSAT 17 Apr 14:26:11 14:26:56 10° 195° (SSW) 14:27:40 not established
Gurwin Techsat 1B 17 Apr 14:35:17 14:38:45 18° 63° (ENE) 14:42:14 435.225 FM
JAS-1B 17 Apr 14:45:14 14:48:36 14° 58° (ENE) 14:51:45 435.800 - 435.900 CW/SSB
AO-27 17 Apr 14:53:43 14:58:55 86° 75° (ENE) 15:04:08 436.795 MHz FM
OPAL 17 Apr 15:00:39 15:01:48 11° 91° (E) 15:02:57 ?
ITAMSAT 1 17 Apr 15:05:04 15:10:15 77° 257° (WSW) 15:15:27 435.822 SSB
AO-7 17 Apr 15:09:13 15:13:48 16° 49° (NE) 15:18:22 29.400 - 29.500 MHz
KITSAT 1 17 Apr 15:15:21 15:21:17 23° 257° (WSW) 15:27:11 435.175 FM
Oscar 19 17 Apr 15:15:53 15:20:25 32° 263° (W) 15:25:01 437.125 CW, 437.150 USB
TMSAT-1 17 Apr 15:23:25 15:28:09 35° 69° (ENE) 15:32:54 436.925 FM
Oscar 16 17 Apr 15:24:14 15:28:24 25° 265° (W) 15:32:36 437.025 USB, Beacon 2401.1428
AO-Echo 17 Apr 15:35:02 15:40:09 50° 260° (W) 15:45:11 ?
ISS 17 Apr 15:48:28 15:50:24 15° 129° (SE) 15:52:20 145.800 FM
Uosat F 17 Apr 15:52:42 15:56:42 24° 66° (ENE) 16:00:42 435.120 FM
Uribyol 2 17 Apr 15:55:24 15:59:33 24° 265° (W) 16:03:43 436.500 FM
SO-50 17 Apr 15:57:18 16:00:24 19° 110° (ESE) 16:03:31 436.795 FM
Gurwin Techsat 1B 17 Apr 16:13:01 16:18:14 58° 259° (W) 16:23:29 435.225 FM
RS-15 17 Apr 16:20:43 16:31:17 50° 48° (NE) 16:42:02 29.354 - 29.394 USB, Beacon 29.352 USB
JAS-1B 17 Apr 16:29:58 16:38:23 75° 73° (ENE) 16:45:23 435.800 - 435.900 CW/SSB
OPAL 17 Apr 16:36:01 16:41:16 84° 286° (WNW) 16:46:29 ?
AO-27 17 Apr 16:38:55 16:39:03 10° 271° (W) 16:39:11 436.795 MHz FM
AO-7 17 Apr 16:56:58 17:05:11 74° 69° (ENE) 17:13:26 29.400 - 29.500 MHz
TMSAT-1 17 Apr 17:03:36 17:08:05 28° 265° (W) 17:12:35 436.925 FM
ISS 17 Apr 17:23:31 17:26:48 56° 325° (NW) 17:30:07 145.800 FM
Uosat F 17 Apr 17:30:37 17:35:16 37° 262° (W) 17:39:56 435.120 FM
SO-50 17 Apr 17:36:21 17:40:38 44° 307° (NW) 17:44:57 436.795 FM
OPAL 17 Apr 18:17:53 18:19:19 11° 303° (WNW) 18:20:45 ?
JAS-1B 17 Apr 18:23:27 18:29:14 20° 266° (W) 18:34:28 435.800 - 435.900 CW/SSB
Hamsat 17 Apr 18:27:33 18:31:14 31° 71° (ENE) 18:34:57 145.90 MHz
UOSAT-12 17 Apr 18:31:15 18:35:25 37° 115° (ESE) 18:39:40 437.025 FM, 437.400 FM
RS-15 17 Apr 18:33:18 18:43:34 48° 250° (WSW) 18:54:09 29.354 - 29.394 USB, Beacon 29.352 USB
JAS-2 17 Apr 18:46:42 18:51:01 22° 66° (ENE) 18:55:04 435.800 - 435.900 CW/SSB, 435.910 FM
AO-7 17 Apr 18:52:32 18:58:38 22° 267° (W) 19:04:46 29.400 - 29.500 MHz
ISS 17 Apr 19:02:14 19:04:09 14° 343° (NNW) 19:06:03 145.800 FM
STRAND 1 17 Apr 19:11:58 19:15:07 16° 92° (E) 19:18:14 ?
SO-67 17 Apr 19:41:31 19:44:42 34° 73° (ENE) 19:47:54 435.3500 MHz FM
HO-68 17 Apr 19:56:52 19:59:39 13° 52° (NE) 20:02:25 435.675 MHz FM
Hamsat 17 Apr 20:04:08 20:07:16 20° 266° (W) 20:10:25 145.90 MHz
UOSAT-12 17 Apr 20:11:50 20:15:39 26° 312° (NW) 20:19:33 437.025 FM, 437.400 FM
JAS-2 17 Apr 20:30:02 20:35:52 49° 260° (W) 20:41:10 435.800 - 435.900 CW/SSB, 435.910 FM
Saudisat 1A 17 Apr 20:35:29 20:39:16 27° 49° (NE) 20:43:00 436.775 MHz
ISS 17 Apr 20:41:37 20:42:05 10° 4° (N) 20:42:32 145.800 FM
STRAND 1 17 Apr 20:49:39 20:54:38 55° 288° (WNW) 20:59:34 ?
SO-67 17 Apr 21:16:38 21:18:00 12° 268° (W) 21:19:22 435.3500 MHz FM
Oscar 11 17 Apr 21:33:29 21:36:12 17° 66° (ENE) 21:38:56 145.825 FM, Beacon 2401.500 USB
HO-68 17 Apr 21:38:59 21:46:02 68° 70° (ENE) 21:53:08 435.675 MHz FM
MaSat-1 17 Apr 22:04:58 22:06:59 16° 110° (ESE) 22:08:50 437.345 MHz
Saudisat 1A 17 Apr 22:14:58 22:18:51 31° 246° (WSW) 22:22:43 436.775 MHz
ISS 17 Apr 22:17:13 22:19:51 21° 24° (NNE) 22:22:29 145.800 FM
FUNcube-1 17 Apr 22:52:35 22:56:28 37° 72° (ENE) 23:00:19 145.950 - 145.970 MHz USB
Oscar 11 17 Apr 23:07:59 23:12:03 42° 261° (W) 23:16:10 145.825 FM, Beacon 2401.500 USB
HO-68 17 Apr 23:29:07 23:34:15 21° 267° (W) 23:39:26 435.675 MHz FM
MaSat-1 17 Apr 23:43:30 23:45:19 15° 300° (WNW) 23:47:01 437.345 MHz
ISS 17 Apr 23:53:31 23:56:51 60° 222° (SW) 00:00:09 145.800 FM
PCSat 18 Apr 00:27:19 00:29:44 13° 103° (ESE) 00:32:09 145.825 MHz
SO-50 18 Apr 00:29:18 00:32:18 17° 43° (NE) 00:35:19 436.795 FM
FUNcube-1 18 Apr 00:30:16 00:33:01 17° 267° (W) 00:35:44 145.950 - 145.970 MHz USB
Sapphire 18 Apr 01:22:25 01:27:26 41° 111° (ESE) 01:32:29 437.095 MHz 1200 baud AX-25 AFSK
Oscar 19 18 Apr 01:52:10 01:53:05 10° 89° (E) 01:54:01 437.125 CW, 437.150 USB
Oscar 16 18 Apr 01:58:33 02:01:13 14° 91° (E) 02:03:51 437.025 USB, Beacon 2401.1428
PCSat 18 Apr 02:07:01 02:12:25 77° 299° (WNW) 02:17:52 145.825 MHz
SO-50 18 Apr 02:08:42 02:13:20 68° 241° (WSW) 02:18:01 436.795 FM
OPAL 18 Apr 02:13:17 02:16:42 19° 61° (ENE) 02:20:09 ?
Uribyol 2 18 Apr 02:30:28 02:33:14 14° 91° (E) 02:35:59 436.500 FM
UOSAT-12 18 Apr 03:01:49 03:05:51 27° 48° (NE) 03:09:51 437.025 FM, 437.400 FM
Sapphire 18 Apr 03:06:19 03:10:58 28° 309° (NW) 03:15:38 437.095 MHz 1200 baud AX-25 AFSK
AO-27 18 Apr 03:08:16 03:12:55 33° 97° (E) 03:17:33 436.795 MHz FM
Oscar 10/S400 18 Apr 03:10:18 03:28:12 31° 134° (SE) 04:17:55 145.825 - 145.975 CW/USB, Beacon 145.810 USB
ITAMSAT 1 18 Apr 03:19:16 03:24:09 41° 99° (E) 03:29:01 435.822 SSB
Oscar 19 18 Apr 03:27:48 03:33:02 84° 285° (WNW) 03:38:14 437.125 CW, 437.150 USB
Oscar 16 18 Apr 03:35:50 03:41:00 66° 286° (WNW) 03:46:08 437.025 USB, Beacon 2401.1428
TMSAT-1 18 Apr 03:41:36 03:44:28 15° 91° (E) 03:47:20 436.925 FM
AO-Echo 18 Apr 03:43:36 03:48:20 57° 101° (E) 03:52:57 ?
KITSAT 1 18 Apr 03:45:09 03:53:04 60° 113° (ESE) 04:01:00 435.175 FM
OPAL 18 Apr 03:50:16 03:55:09 53° 258° (WSW) 04:00:07 ?
PCSat 18 Apr 03:54:14 03:56:46 13° 319° (NW) 03:59:18 145.825 MHz
Uribyol 2 18 Apr 04:08:00 04:13:07 63° 287° (WNW) 04:18:13 436.500 FM
JAS-1B 18 Apr 04:18:19 04:21:31 15° 92° (E) 04:24:47 435.800 - 435.900 CW/SSB
Gurwin Techsat 1B 18 Apr 04:30:15 04:35:32 63° 101° (E) 04:40:46 435.225 FM
UOSAT-12 18 Apr 04:41:45 04:46:04 36° 246° (WSW) 04:50:21 437.025 FM, 437.400 FM
AO-27 18 Apr 04:47:56 04:52:19 28° 293° (WNW) 04:56:40 436.795 MHz FM
ITAMSAT 1 18 Apr 04:59:22 05:03:22 23° 295° (WNW) 05:07:22 435.822 SSB
AO-7 18 Apr 05:00:43 05:07:17 25° 95° (E) 05:13:48 29.400 - 29.500 MHz
Oscar 19 18 Apr 05:10:43 05:11:31 10° 301° (WNW) 05:12:20 437.125 CW, 437.150 USB
TMSAT-1 18 Apr 05:19:35 05:24:49 64° 286° (WNW) 05:30:02 436.925 FM
AO-Echo 18 Apr 05:23:57 05:26:35 15° 297° (WNW) 05:29:12 ?
Uosat F 18 Apr 05:38:57 05:43:58 73° 103° (ESE) 05:48:56 435.120 FM
KITSAT 1 18 Apr 05:41:40 05:48:52 34° 313° (NW) 05:56:07 435.175 FM
JAS-1B 18 Apr 06:07:07 06:12:42 61° 288° (WNW) 06:18:27 435.800 - 435.900 CW/SSB
Gurwin Techsat 1B 18 Apr 06:11:41 06:14:57 17° 298° (WNW) 06:18:13 435.225 FM
STRAND 1 18 Apr 06:26:48 06:30:43 23° 65° (ENE) 06:34:38 ?
RS-15 18 Apr 06:44:15 06:53:45 32° 105° (ESE) 07:02:57 29.354 - 29.394 USB, Beacon 29.352 USB
AO-7 18 Apr 06:52:22 07:00:35 68° 292° (WNW) 07:08:49 29.400 - 29.500 MHz
Uosat F 18 Apr 07:19:48 07:22:07 13° 299° (WNW) 07:24:27 435.120 FM
JAS-2 18 Apr 07:40:02 07:43:53 19° 94° (E) 07:47:57 435.800 - 435.900 CW/SSB, 435.910 FM
KITSAT 1 18 Apr 07:45:20 07:47:19 11° 341° (NNW) 07:49:18 435.175 FM
Hamsat 18 Apr 07:49:40 07:54:02 76° 101° (ESE) 07:58:23 145.90 MHz
STRAND 1 18 Apr 08:04:48 08:09:38 42° 261° (W) 08:14:29 ?
MaSat-1 18 Apr 08:06:09 08:09:02 47° 64° (ENE) 08:12:25 437.345 MHz
SO-67 18 Apr 08:39:53 08:43:19 50° 99° (E) 08:46:42 435.3500 MHz FM
AO-7 18 Apr 08:47:45 08:51:51 15° 312° (NW) 08:55:58 29.400 - 29.500 MHz
RS-15 18 Apr 08:53:59 09:05:16 69° 305° (NW) 09:16:14 29.354 - 29.394 USB, Beacon 29.352 USB
HO-68 18 Apr 09:11:28 09:13:44 12° 88° (E) 09:16:00 435.675 MHz FM
PCSat 18 Apr 09:15:05 09:17:02 12° 40° (NE) 09:18:58 145.825 MHz
JAS-2 18 Apr 09:24:01 09:29:12 51° 288° (WNW) 09:34:50 435.800 - 435.900 CW/SSB, 435.910 FM
Sapphire 18 Apr 10:11:29 10:16:08 28° 51° (NE) 10:20:44 437.095 MHz 1200 baud AX-25 AFSK
PANSAT 18 Apr 10:41:19 10:43:24 14° 171° (S) 10:45:29 not established
